MAS122 YSSY-WMKK

Flight info

Callsign MAS122
Flight time N/A
Altitude 34000
Route KADOM DCT BTH DCT AKNEV DCT UNSUS DCT PKEEB DCT PKEEA DCT GAVAS DCT OB2WF DCT ISGEL DCT APOMA/N0497F360 A576 LEKAD/N0499F380 A576 ATMAP/N0487F400 M635 JUNHA DCT WSSS DCT RKJ06 DCT RUNEM DCT SADAR DCT MASBO GUPTA1J
Aircraft A388/J-SADE2E3FGHIJ3J4J5M1RWXY/LB1D1

Departure

Time N/A
Airport Sydney Kingsford Smith International Airport (YSSY)

Arrival

Time 2026-05-04 16:35
Airport Kuala Lumpur International Airport (WMKK)
Time Latitude Longitude Altitude Speed Heading
2026-05-04 11:27 -23.32563 133.05517 36219 ft 456 kts 300°
2026-05-04 11:28 -23.29204 132.99651 36203 ft 460 kts 300°
2026-05-04 11:28 -23.25817 132.93743 36203 ft 460 kts 300°
2026-05-04 11:29 -23.22453 132.87883 36195 ft 456 kts 300°
2026-05-04 11:29 -23.19088 132.82026 36197 ft 457 kts 300°
2026-05-04 11:33 -22.96078 132.42159 36178 ft 457 kts 300°
2026-05-04 11:33 -22.92677 132.36295 36173 ft 457 kts 300°
2026-05-04 11:34 -22.89324 132.30517 36176 ft 457 kts 300°
2026-05-04 11:34 -22.85932 132.24679 36173 ft 457 kts 300°
2026-05-04 11:35 -22.82540 132.18848 36190 ft 459 kts 300°
2026-05-04 11:35 -22.79115 132.12966 36138 ft 460 kts 300°
2026-05-04 11:36 -22.75710 132.07128 36164 ft 458 kts 300°
2026-05-04 11:36 -22.72301 132.01286 36165 ft 458 kts 300°
2026-05-04 11:37 -22.68896 131.95460 36165 ft 460 kts 299°
2026-05-04 11:37 -22.65471 131.89604 36162 ft 460 kts 299°
2026-05-04 11:38 -22.62061 131.83783 36160 ft 458 kts 299°
2026-05-04 11:38 -22.58664 131.77988 36159 ft 458 kts 299°
2026-05-04 11:39 -22.55239 131.72152 36157 ft 461 kts 299°
2026-05-04 11:41 -22.43198 131.51689 36148 ft 461 kts 299°
2026-05-04 11:41 -22.39761 131.45862 36148 ft 461 kts 299°
2026-05-04 11:42 -22.36338 131.40067 36139 ft 461 kts 299°
2026-05-04 11:42 -22.32895 131.34244 36147 ft 462 kts 299°
2026-05-04 11:43 -22.29424 131.28379 36134 ft 462 kts 299°
2026-05-04 11:43 -22.25966 131.22543 36135 ft 461 kts 299°
2026-05-04 11:44 -22.22516 131.16725 36131 ft 462 kts 299°
2026-05-04 11:44 -22.19071 131.10924 36131 ft 464 kts 299°
2026-05-04 11:45 -22.15584 131.05057 36106 ft 464 kts 299°
2026-05-04 11:45 -22.12112 130.99224 36119 ft 462 kts 299°
2026-05-04 11:46 -22.08635 130.93386 36116 ft 462 kts 299°
2026-05-04 11:46 -22.05148 130.87539 36115 ft 464 kts 299°
2026-05-04 11:47 -22.01654 130.81687 36116 ft 464 kts 299°
2026-05-04 11:47 -21.98155 130.75832 36092 ft 462 kts 299°
2026-05-04 11:48 -21.94687 130.70032 36111 ft 462 kts 299°
2026-05-04 11:48 -21.91220 130.64239 36108 ft 462 kts 299°
2026-05-04 11:49 -21.87727 130.58430 36108 ft 462 kts 299°
2026-05-04 11:49 -21.84235 130.52620 36098 ft 462 kts 299°
2026-05-04 11:50 -21.80774 130.46858 36099 ft 463 kts 298°
2026-05-04 11:50 -21.77260 130.41012 36562 ft 465 kts 298°
2026-05-04 11:50 -21.75510 130.38108 37126 ft 460 kts 298°
2026-05-04 11:51 -21.73775 130.35232 37668 ft 457 kts 298°
2026-05-04 11:51 -21.72061 130.32390 38148 ft 454 kts 298°
2026-05-04 11:51 -21.70348 130.29547 38259 ft 458 kts 298°
2026-05-04 11:51 -21.68626 130.26694 38055 ft 448 kts 298°
2026-05-04 11:52 -21.66934 130.23893 38098 ft 448 kts 298°
2026-05-04 11:52 -21.63545 130.18278 38086 ft 451 kts 298°
2026-05-04 11:53 -21.60130 130.12632 38087 ft 451 kts 298°
2026-05-04 11:53 -21.56724 130.07007 38086 ft 451 kts 298°
2026-05-04 11:55 -21.43037 129.84460 38081 ft 452 kts 298°
2026-05-04 11:56 -21.39597 129.78807 38084 ft 452 kts 297°
2026-05-04 11:56 -21.36148 129.73146 38078 ft 452 kts 297°
2026-05-04 11:57 -21.32710 129.67508 38073 ft 452 kts 298°
2026-05-04 11:57 -21.29298 129.61920 38070 ft 452 kts 298°
2026-05-04 11:58 -21.25857 129.56289 38080 ft 453 kts 297°
2026-05-04 11:58 -21.22412 129.50657 38073 ft 453 kts 297°
2026-05-04 11:59 -21.18954 129.45009 38074 ft 453 kts 297°
2026-05-04 11:59 -21.15524 129.39414 38075 ft 453 kts 297°
2026-05-04 12:00 -21.12063 129.33772 38096 ft 454 kts 297°
2026-05-04 12:00 -21.08619 129.28164 38088 ft 453 kts 297°
2026-05-04 12:01 -21.05152 129.22524 38062 ft 453 kts 297°
2026-05-04 12:02 -20.93013 129.02824 38080 ft 454 kts 297°
2026-05-04 12:03 -20.89548 128.97213 38078 ft 454 kts 297°
2026-05-04 12:03 -20.86061 128.91572 38077 ft 454 kts 297°
2026-05-04 12:04 -20.82569 128.85928 38079 ft 455 kts 297°
2026-05-04 12:04 -20.79097 128.80323 38075 ft 455 kts 297°
2026-05-04 12:05 -20.75602 128.74684 38078 ft 455 kts 297°
2026-05-04 12:05 -20.72107 128.69054 38075 ft 455 kts 297°
2026-05-04 12:06 -20.68595 128.63402 38078 ft 456 kts 297°
2026-05-04 12:06 -20.65083 128.57754 38074 ft 456 kts 297°
2026-05-04 12:07 -20.61602 128.52160 38078 ft 456 kts 297°
2026-05-04 12:07 -20.58086 128.46518 38065 ft 456 kts 296°
2026-05-04 12:08 -20.54565 128.40871 38092 ft 456 kts 296°
2026-05-04 12:08 -20.51050 128.35240 38071 ft 456 kts 296°
2026-05-04 12:09 -20.47543 128.29628 38082 ft 457 kts 296°
2026-05-04 12:09 -20.44014 128.23985 38073 ft 457 kts 296°
2026-05-04 12:10 -20.40491 128.18361 38037 ft 457 kts 296°
2026-05-04 12:10 -20.36957 128.12720 38074 ft 457 kts 296°
2026-05-04 12:11 -20.33414 128.07072 38075 ft 458 kts 296°
2026-05-04 12:11 -20.29889 128.01458 38075 ft 458 kts 296°
2026-05-04 12:12 -20.26345 127.95820 38075 ft 458 kts 296°
2026-05-04 12:12 -20.22814 127.90208 38076 ft 458 kts 296°
2026-05-04 12:14 -20.08616 127.67695 38072 ft 459 kts 296°
2026-05-04 12:15 -20.05061 127.62072 38070 ft 459 kts 296°
2026-05-04 12:15 -20.01497 127.56438 38072 ft 459 kts 296°
2026-05-04 12:16 -19.97956 127.50847 38072 ft 459 kts 296°
2026-05-04 12:16 -19.94388 127.45219 38071 ft 459 kts 295°
2026-05-04 12:17 -19.90821 127.39598 38070 ft 459 kts 296°
2026-05-04 12:17 -19.87246 127.33969 38069 ft 459 kts 296°
2026-05-04 12:18 -19.83682 127.28362 38072 ft 460 kts 296°
2026-05-04 12:18 -19.80705 127.23682 38067 ft 461 kts 296°
2026-05-04 12:19 -19.77108 127.18036 38073 ft 462 kts 296°
2026-05-04 12:19 -19.72933 127.11488 38073 ft 462 kts 296°
2026-05-04 12:20 -19.69921 127.06767 38073 ft 461 kts 296°
2026-05-04 12:20 -19.66353 127.01181 38067 ft 461 kts 296°
2026-05-04 12:21 -19.62749 126.95541 38061 ft 463 kts 296°
2026-05-04 12:21 -19.59136 126.89894 38067 ft 463 kts 296°
2026-05-04 12:22 -19.55518 126.84246 38069 ft 463 kts 296°
2026-05-04 12:22 -19.51890 126.78586 38064 ft 463 kts 296°
2026-05-04 12:23 -19.48269 126.72940 38068 ft 463 kts 296°
2026-05-04 12:23 -19.44653 126.67306 38067 ft 463 kts 296°
2026-05-04 12:24 -19.41048 126.61698 38064 ft 464 kts 296°
2026-05-04 12:24 -19.37397 126.56050 38064 ft 464 kts 296°
2026-05-04 12:25 -19.33765 126.50425 38058 ft 464 kts 296°
2026-05-04 12:25 -19.30134 126.44801 38061 ft 464 kts 296°
2026-05-04 12:26 -19.26515 126.39202 38055 ft 464 kts 296°
2026-05-04 12:26 -19.22864 126.33560 38042 ft 465 kts 296°
2026-05-04 12:27 -19.19205 126.27910 38058 ft 465 kts 296°
2026-05-04 12:27 -19.15546 126.22266 38059 ft 466 kts 296°
2026-05-04 12:28 -19.11881 126.16619 38058 ft 466 kts 296°
2026-05-04 12:28 -19.08232 126.11001 38068 ft 466 kts 296°
2026-05-04 12:29 -19.04579 126.05382 38055 ft 466 kts 296°
2026-05-04 12:29 -19.00915 125.99749 38046 ft 467 kts 296°
2026-05-04 12:30 -18.97235 125.94098 38051 ft 467 kts 296°
2026-05-04 12:30 -18.93561 125.88463 38043 ft 467 kts 296°
2026-05-04 12:31 -18.89891 125.82839 38044 ft 467 kts 296°
2026-05-04 12:31 -18.86220 125.77217 38037 ft 467 kts 296°
2026-05-04 12:32 -18.80702 125.68774 38036 ft 468 kts 297°
2026-05-04 12:33 -18.77013 125.63139 38043 ft 469 kts 297°
2026-05-04 12:33 -18.73304 125.57477 38040 ft 469 kts 297°
2026-05-04 12:34 -18.69595 125.51820 38039 ft 468 kts 297°
2026-05-04 12:34 -18.65909 125.46204 38034 ft 469 kts 297°
2026-05-04 12:35 -18.62190 125.40543 38034 ft 469 kts 297°
2026-05-04 12:35 -18.58460 125.34866 38043 ft 471 kts 297°
2026-05-04 12:36 -18.54736 125.29208 38026 ft 470 kts 297°
2026-05-04 12:36 -18.51023 125.23572 38024 ft 470 kts 297°
2026-05-04 12:37 -18.47284 125.17900 38026 ft 470 kts 297°
2026-05-04 12:37 -18.43553 125.12244 38024 ft 471 kts 297°
2026-05-04 12:38 -18.39824 125.06595 38019 ft 473 kts 297°
2026-05-04 12:38 -18.36066 125.00909 38029 ft 473 kts 297°
2026-05-04 12:39 -18.32301 124.95219 38029 ft 473 kts 297°
2026-05-04 12:39 -18.28564 124.89576 38028 ft 473 kts 297°
2026-05-04 12:40 -18.24802 124.83899 38024 ft 473 kts 297°
2026-05-04 12:40 -18.21034 124.78218 38026 ft 473 kts 297°
2026-05-04 12:41 -18.17265 124.72538 38011 ft 475 kts 298°
2026-05-04 12:41 -18.13488 124.66854 38021 ft 474 kts 298°
2026-05-04 12:42 -18.09704 124.61165 38025 ft 474 kts 298°
2026-05-04 12:42 -18.05944 124.55516 38022 ft 474 kts 298°
2026-05-04 12:43 -18.02178 124.49862 38026 ft 475 kts 298°
2026-05-04 12:43 -17.98412 124.44214 38024 ft 474 kts 298°
2026-05-04 12:44 -17.94621 124.38533 38026 ft 474 kts 298°
2026-05-04 12:44 -17.90839 124.32869 38024 ft 474 kts 298°
2026-05-04 12:45 -17.87047 124.27197 38024 ft 474 kts 298°
2026-05-04 12:45 -17.83257 124.21532 38026 ft 475 kts 298°
2026-05-04 12:46 -17.79461 124.15864 38022 ft 474 kts 298°
2026-05-04 12:46 -17.75694 124.10242 38018 ft 474 kts 298°
2026-05-04 12:47 -17.71882 124.04558 38008 ft 476 kts 298°
2026-05-04 12:47 -17.68078 123.98893 38001 ft 476 kts 298°
2026-05-04 12:48 -17.64285 123.93248 37995 ft 475 kts 298°
2026-05-04 12:48 -17.60492 123.87620 37992 ft 476 kts 299°
2026-05-04 12:49 -17.56143 123.82319 38010 ft 486 kts 308°
2026-05-04 12:49 -17.51321 123.77347 38004 ft 487 kts 308°
2026-05-04 12:50 -17.46532 123.72361 38007 ft 486 kts 308°
2026-05-04 12:50 -17.41749 123.67381 38001 ft 486 kts 308°
2026-05-04 12:51 -17.36962 123.62403 38004 ft 486 kts 308°
2026-05-04 12:51 -17.32165 123.57417 38004 ft 486 kts 308°
2026-05-04 12:52 -17.27368 123.52437 37988 ft 487 kts 308°
2026-05-04 12:52 -17.22556 123.47446 38004 ft 487 kts 308°
2026-05-04 12:53 -17.17783 123.42500 38000 ft 487 kts 308°
2026-05-04 12:53 -17.12968 123.37515 38001 ft 487 kts 308°
2026-05-04 12:54 -17.08151 123.32533 38003 ft 487 kts 308°
2026-05-04 12:54 -17.03333 123.27551 37981 ft 488 kts 308°
2026-05-04 12:55 -16.98536 123.22595 38002 ft 488 kts 308°
2026-05-04 12:55 -16.93708 123.17612 38001 ft 488 kts 308°
2026-05-04 12:56 -16.88878 123.12632 37999 ft 488 kts 308°
2026-05-04 12:56 -16.84045 123.07651 37999 ft 488 kts 308°
2026-05-04 12:57 -16.79252 123.02714 37975 ft 488 kts 308°
2026-05-04 12:57 -16.74448 122.97769 37996 ft 489 kts 309°
2026-05-04 12:58 -16.69599 122.92785 37996 ft 490 kts 309°
2026-05-04 12:58 -16.64744 122.87796 37989 ft 490 kts 309°
2026-05-04 12:59 -16.59897 122.82820 37995 ft 490 kts 309°
2026-05-04 12:59 -16.55053 122.77850 37994 ft 490 kts 309°
2026-05-04 13:00 -16.50177 122.72849 38012 ft 493 kts 309°
2026-05-04 13:00 -16.45287 122.67841 37985 ft 492 kts 309°
2026-05-04 13:01 -16.40403 122.62842 37975 ft 492 kts 309°
2026-05-04 13:01 -16.35551 122.57879 37979 ft 492 kts 309°
2026-05-04 13:02 -16.30675 122.52895 37991 ft 492 kts 309°
2026-05-04 13:02 -16.25794 122.47906 37980 ft 495 kts 309°
2026-05-04 13:03 -16.20880 122.42893 37983 ft 494 kts 309°
2026-05-04 13:03 -16.15993 122.37910 37987 ft 494 kts 309°
2026-05-04 13:04 -16.11079 122.32903 37972 ft 494 kts 309°
2026-05-04 13:04 -16.06187 122.27920 37990 ft 494 kts 309°
2026-05-04 13:05 -16.01268 122.22912 37986 ft 495 kts 310°
2026-05-04 13:05 -15.97189 122.18765 37986 ft 495 kts 310°
2026-05-04 13:06 -15.91454 122.12937 37989 ft 495 kts 310°
2026-05-04 13:06 -15.87365 122.08785 37989 ft 495 kts 310°
2026-05-04 13:07 -15.82429 122.03776 37989 ft 495 kts 310°
2026-05-04 13:07 -15.77514 121.98792 37972 ft 495 kts 310°
2026-05-04 13:08 -15.72598 121.93809 37983 ft 495 kts 310°
2026-05-04 13:08 -15.67664 121.88813 37986 ft 495 kts 310°
2026-05-04 13:09 -15.62730 121.83820 37989 ft 495 kts 310°
2026-05-04 13:09 -15.57803 121.78838 37986 ft 495 kts 310°
2026-05-04 13:10 -15.52905 121.73888 37981 ft 495 kts 310°
2026-05-04 13:10 -15.47964 121.68899 37986 ft 495 kts 310°
2026-05-04 13:11 -15.43025 121.63915 37989 ft 495 kts 310°
2026-05-04 13:11 -15.38087 121.58936 37991 ft 495 kts 310°
2026-05-04 13:12 -15.33162 121.53973 37991 ft 495 kts 310°
2026-05-04 13:12 -15.28226 121.49002 37992 ft 495 kts 310°
2026-05-04 13:13 -15.23322 121.44067 37982 ft 495 kts 310°
2026-05-04 13:13 -15.18378 121.39096 37985 ft 495 kts 310°
2026-05-04 13:14 -15.13444 121.34138 37985 ft 495 kts 310°
2026-05-04 13:14 -15.08501 121.29174 37985 ft 495 kts 310°
2026-05-04 13:15 -15.03558 121.24214 37989 ft 495 kts 310°
2026-05-04 13:15 -14.98640 121.19280 37976 ft 496 kts 311°
2026-05-04 13:16 -14.93679 121.14309 37987 ft 496 kts 311°
2026-05-04 13:16 -14.88725 121.09349 37984 ft 496 kts 311°
2026-05-04 13:17 -14.83771 121.04391 37984 ft 496 kts 311°
2026-05-04 13:17 -14.78810 120.99429 37987 ft 496 kts 311°
2026-05-04 13:18 -14.73847 120.94468 37979 ft 495 kts 311°
2026-05-04 13:18 -14.68929 120.89556 37981 ft 496 kts 311°
2026-05-04 13:19 -14.63957 120.84594 37982 ft 497 kts 311°
2026-05-04 13:19 -14.58991 120.79640 37981 ft 496 kts 311°
2026-05-04 13:20 -14.54016 120.74682 37982 ft 496 kts 311°
2026-05-04 13:20 -14.49056 120.69740 37982 ft 496 kts 311°
2026-05-04 13:21 -14.44084 120.64789 37980 ft 499 kts 311°
2026-05-04 13:21 -14.39116 120.59847 37997 ft 499 kts 311°
2026-05-04 13:22 -14.34121 120.54883 37997 ft 499 kts 311°
2026-05-04 13:22 -14.29124 120.49918 37975 ft 499 kts 311°
2026-05-04 13:23 -14.24129 120.44958 37970 ft 498 kts 311°
2026-05-04 13:23 -14.19138 120.40006 37959 ft 499 kts 312°
2026-05-04 13:24 -14.14139 120.35047 37987 ft 499 kts 312°
2026-05-04 13:24 -14.09155 120.30110 37994 ft 500 kts 312°
2026-05-04 13:25 -14.01626 120.22655 37988 ft 500 kts 312°
2026-05-04 13:25 -13.96632 120.17713 37981 ft 499 kts 312°
2026-05-04 13:26 -13.91630 120.12767 37953 ft 500 kts 312°
2026-05-04 13:26 -13.86610 120.07806 37976 ft 501 kts 312°
2026-05-04 13:27 -13.81585 120.02844 37980 ft 501 kts 312°
2026-05-04 13:27 -13.76613 119.97937 37977 ft 501 kts 312°
2026-05-04 13:28 -13.71592 119.92986 37980 ft 501 kts 313°
2026-05-04 13:28 -13.66565 119.88030 37980 ft 501 kts 313°
2026-05-04 13:29 -13.61549 119.83088 37977 ft 503 kts 313°
2026-05-04 13:29 -13.56505 119.78123 37978 ft 502 kts 313°
2026-05-04 13:30 -13.51476 119.73175 37978 ft 502 kts 313°
2026-05-04 13:30 -13.46464 119.68248 37977 ft 502 kts 313°
2026-05-04 13:31 -13.41380 119.63252 37975 ft 502 kts 313°
2026-05-04 13:31 -13.36371 119.58333 37965 ft 503 kts 313°
2026-05-04 13:32 -13.31301 119.53357 37973 ft 503 kts 313°
2026-05-04 13:32 -13.26250 119.48402 37973 ft 503 kts 313°
2026-05-04 13:33 -13.21185 119.43438 37975 ft 503 kts 313°
2026-05-04 13:33 -13.16133 119.38488 37972 ft 503 kts 313°
2026-05-04 13:34 -13.11116 119.33577 37975 ft 503 kts 313°
2026-05-04 13:34 -13.06058 119.28626 37970 ft 505 kts 313°
2026-05-04 13:35 -12.98442 119.21181 37974 ft 503 kts 313°
2026-05-04 13:36 -12.93363 119.16218 37972 ft 503 kts 313°
2026-05-04 13:36 -12.88289 119.11263 37972 ft 503 kts 313°
2026-05-04 13:37 -12.83217 119.06314 37971 ft 504 kts 313°
2026-05-04 13:37 -12.78186 119.01406 37971 ft 504 kts 313°
2026-05-04 13:38 -12.73131 118.96479 37969 ft 503 kts 313°
2026-05-04 13:38 -12.68058 118.91538 37969 ft 502 kts 313°
2026-05-04 13:39 -12.63002 118.86615 37969 ft 502 kts 313°
2026-05-04 13:39 -12.57928 118.81677 37969 ft 502 kts 313°
2026-05-04 13:40 -12.52896 118.76783 37967 ft 502 kts 313°
2026-05-04 13:40 -12.47835 118.71864 37968 ft 503 kts 313°
2026-05-04 13:41 -12.42744 118.66919 37968 ft 503 kts 313°
2026-05-04 13:41 -12.37703 118.62026 37969 ft 502 kts 313°
2026-05-04 13:42 -12.30123 118.54672 37966 ft 502 kts 313°
2026-05-04 13:42 -12.25082 118.49784 37966 ft 502 kts 313°
2026-05-04 13:43 -12.20013 118.44870 37966 ft 503 kts 314°
2026-05-04 13:43 -12.14936 118.39953 37965 ft 502 kts 314°
2026-05-04 13:44 -12.09873 118.35050 37966 ft 501 kts 314°
2026-05-04 13:44 -12.04815 118.30156 37965 ft 501 kts 314°
2026-05-04 13:45 -11.99771 118.25277 37965 ft 502 kts 314°
2026-05-04 13:45 -11.94740 118.20422 37966 ft 502 kts 314°
2026-05-04 13:46 -11.89679 118.15539 37960 ft 503 kts 314°
2026-05-04 13:46 -11.84606 118.10642 37962 ft 503 kts 314°
2026-05-04 13:47 -11.79523 118.05737 37966 ft 502 kts 314°
2026-05-04 13:47 -11.74444 118.00840 37965 ft 502 kts 314°
2026-05-04 13:48 -11.69375 117.95955 37962 ft 502 kts 314°
2026-05-04 13:48 -11.64323 117.91089 37958 ft 503 kts 314°
2026-05-04 13:49 -11.59230 117.86185 37961 ft 503 kts 314°
2026-05-04 13:49 -11.54141 117.81290 37957 ft 503 kts 314°
2026-05-04 13:50 -11.49040 117.76384 37957 ft 503 kts 314°
2026-05-04 13:50 -11.43952 117.71494 37961 ft 503 kts 314°
2026-05-04 13:51 -11.38847 117.66590 37961 ft 503 kts 314°
2026-05-04 13:51 -11.33782 117.61727 37963 ft 505 kts 314°
2026-05-04 13:52 -11.26130 117.54384 37962 ft 505 kts 314°
2026-05-04 13:53 -11.21010 117.49475 37961 ft 505 kts 314°
2026-05-04 13:53 -11.16754 117.45396 37958 ft 504 kts 314°
2026-05-04 13:54 -11.08272 117.37272 37962 ft 504 kts 314°
2026-05-04 13:55 -11.01450 117.30741 37959 ft 506 kts 314°
2026-05-04 13:55 -10.93756 117.23382 37960 ft 506 kts 314°
2026-05-04 13:56 -10.88621 117.18474 37962 ft 506 kts 314°
2026-05-04 13:57 -10.80963 117.11159 37962 ft 506 kts 314°
2026-05-04 13:58 -10.70683 117.01347 37960 ft 507 kts 314°
2026-05-04 13:58 -10.62970 116.93992 37960 ft 507 kts 314°
2026-05-04 13:59 -10.57864 116.89126 37961 ft 507 kts 314°
2026-05-04 14:00 -10.50144 116.81772 37960 ft 507 kts 315°
2026-05-04 14:00 -10.42431 116.74432 37963 ft 506 kts 315°
2026-05-04 14:01 -10.37283 116.69534 37960 ft 507 kts 315°
2026-05-04 14:02 -10.29605 116.62235 37960 ft 507 kts 315°
2026-05-04 14:02 -10.24461 116.57348 37957 ft 507 kts 315°
2026-05-04 14:03 -10.19311 116.52457 37958 ft 505 kts 315°
2026-05-04 14:03 -10.14184 116.47590 37961 ft 506 kts 315°
2026-05-04 14:04 -10.06472 116.40274 37959 ft 507 kts 315°
2026-05-04 14:04 -10.01385 116.35451 37958 ft 507 kts 315°
2026-05-04 14:05 -9.93659 116.28130 37954 ft 506 kts 315°
2026-05-04 14:06 -9.88538 116.23280 37952 ft 505 kts 315°
2026-05-04 14:06 -9.83395 116.18411 37956 ft 506 kts 315°
2026-05-04 14:07 -9.78254 116.13547 37952 ft 504 kts 315°
2026-05-04 14:07 -9.73146 116.08715 37949 ft 505 kts 315°
2026-05-04 14:08 -9.68007 116.03857 37953 ft 505 kts 315°
2026-05-04 14:08 -9.62854 115.98988 38252 ft 507 kts 315°
2026-05-04 14:08 -9.60273 115.96549 38677 ft 506 kts 315°
2026-05-04 14:09 -9.55168 115.91728 39455 ft 502 kts 315°
2026-05-04 14:09 -9.52628 115.89331 39897 ft 498 kts 315°
2026-05-04 14:10 -9.47560 115.84549 39949 ft 494 kts 315°
2026-05-04 14:10 -9.42523 115.79795 39953 ft 499 kts 315°
2026-05-04 14:11 -9.37463 115.75024 39952 ft 496 kts 315°
2026-05-04 14:11 -9.29924 115.67919 39949 ft 497 kts 315°
2026-05-04 14:12 -9.24867 115.63155 39946 ft 497 kts 315°
2026-05-04 14:13 -9.17259 115.55992 39947 ft 499 kts 316°
2026-05-04 14:13 -9.12184 115.51216 39948 ft 499 kts 315°
2026-05-04 14:14 -9.07100 115.46435 39944 ft 498 kts 316°
2026-05-04 14:14 -8.99474 115.39265 39946 ft 498 kts 315°
2026-05-04 14:15 -8.89356 115.29759 39937 ft 500 kts 316°
2026-05-04 14:16 -8.81695 115.22565 39939 ft 501 kts 316°
2026-05-04 14:17 -8.73919 115.15508 39938 ft 502 kts 321°
2026-05-04 14:18 -8.65469 115.09324 39940 ft 502 kts 322°
2026-05-04 14:19 -8.54156 115.01032 39954 ft 503 kts 323°
2026-05-04 14:19 -8.48484 114.96883 39960 ft 503 kts 323°
2026-05-04 14:20 -8.42817 114.92739 39962 ft 503 kts 323°
2026-05-04 14:20 -8.37141 114.88590 39960 ft 503 kts 323°
2026-05-04 14:21 -8.28632 114.82373 39959 ft 503 kts 323°
2026-05-04 14:21 -8.22960 114.78230 39955 ft 504 kts 323°
2026-05-04 14:22 -8.17269 114.74075 39949 ft 505 kts 323°
2026-05-04 14:22 -8.11589 114.69930 39944 ft 505 kts 323°
2026-05-04 14:23 -8.03054 114.63703 39944 ft 504 kts 323°
2026-05-04 14:24 -7.97380 114.59566 39938 ft 504 kts 323°
2026-05-04 14:24 -7.91700 114.55425 39938 ft 505 kts 323°
2026-05-04 14:25 -7.86012 114.51281 39937 ft 505 kts 323°
2026-05-04 14:25 -7.77520 114.45096 39936 ft 505 kts 323°
2026-05-04 14:26 -7.71837 114.40959 39930 ft 505 kts 323°
2026-05-04 14:26 -7.66141 114.36813 39928 ft 503 kts 323°
2026-05-04 14:27 -7.60494 114.32705 39916 ft 503 kts 323°
2026-05-04 14:27 -7.54768 114.28539 39919 ft 503 kts 323°
2026-05-04 14:28 -7.49138 114.24447 39920 ft 504 kts 323°
2026-05-04 14:28 -7.43448 114.20311 39915 ft 504 kts 323°
2026-05-04 14:29 -7.32094 114.12062 39914 ft 504 kts 323°
2026-05-04 14:30 -7.26444 114.07960 39917 ft 503 kts 323°
2026-05-04 14:31 -7.17906 114.01762 39917 ft 505 kts 324°
2026-05-04 14:32 -7.06513 113.93497 39917 ft 505 kts 324°
2026-05-04 14:32 -7.00823 113.89371 39917 ft 505 kts 324°
2026-05-04 14:33 -6.95165 113.85274 39918 ft 504 kts 324°
2026-05-04 14:33 -6.89484 113.81165 39914 ft 502 kts 324°
2026-05-04 14:34 -6.83787 113.77045 39914 ft 504 kts 324°
2026-05-04 14:34 -6.78119 113.72946 39914 ft 502 kts 324°
2026-05-04 14:35 -6.72423 113.68830 39912 ft 505 kts 324°
2026-05-04 14:35 -6.66753 113.64733 39911 ft 499 kts 324°
2026-05-04 14:36 -6.61071 113.60628 39911 ft 504 kts 324°
2026-05-04 14:36 -6.55445 113.56565 39911 ft 500 kts 324°
2026-05-04 14:37 -6.49761 113.52462 39914 ft 504 kts 324°
2026-05-04 14:37 -6.44107 113.48380 39909 ft 501 kts 324°
2026-05-04 14:38 -6.38448 113.44297 39909 ft 501 kts 324°
2026-05-04 14:38 -6.32785 113.40211 39912 ft 502 kts 325°
2026-05-04 14:39 -6.27218 113.36001 39913 ft 504 kts 320°
2026-05-04 14:39 -6.22286 113.31001 39916 ft 505 kts 311°
2026-05-04 14:40 -6.16558 113.23574 39913 ft 504 kts 309°
2026-05-04 14:40 -6.11562 113.17081 39918 ft 504 kts 309°
2026-05-04 14:41 -6.07990 113.12435 39918 ft 503 kts 309°
2026-05-04 14:42 -5.99427 113.01298 39922 ft 505 kts 309°
2026-05-04 14:42 -5.95135 112.95717 39919 ft 506 kts 309°
2026-05-04 14:43 -5.90817 112.90105 39922 ft 507 kts 309°
2026-05-04 14:43 -5.86518 112.84517 39922 ft 506 kts 309°
2026-05-04 14:44 -5.82203 112.78911 39922 ft 506 kts 309°
2026-05-04 14:44 -5.77911 112.73339 39923 ft 506 kts 308°
2026-05-04 14:45 -5.73656 112.67812 39926 ft 505 kts 308°
2026-05-04 14:45 -5.69365 112.62242 39924 ft 504 kts 309°
2026-05-04 14:46 -5.65056 112.56651 39925 ft 506 kts 308°
2026-05-04 14:46 -5.60751 112.51065 39925 ft 509 kts 309°
2026-05-04 14:47 -5.56453 112.45490 39928 ft 508 kts 309°
2026-05-04 14:47 -5.52148 112.39910 39927 ft 507 kts 308°
2026-05-04 14:48 -5.47853 112.34339 39923 ft 504 kts 309°
2026-05-04 14:48 -5.43544 112.28757 39924 ft 506 kts 309°
2026-05-04 14:49 -5.39238 112.23177 39927 ft 504 kts 309°
2026-05-04 14:49 -5.34957 112.17632 39927 ft 505 kts 309°
2026-05-04 14:50 -5.30674 112.12087 39925 ft 508 kts 308°
2026-05-04 14:50 -5.26328 112.06459 39925 ft 511 kts 309°
2026-05-04 14:51 -5.21970 112.00819 39927 ft 512 kts 309°
2026-05-04 14:51 -5.17630 111.95203 39927 ft 512 kts 309°
2026-05-04 14:52 -5.13303 111.89604 39927 ft 511 kts 309°
2026-05-04 14:52 -5.08946 111.83970 39930 ft 511 kts 309°
2026-05-04 14:53 -5.04593 111.78341 39928 ft 511 kts 309°
2026-05-04 14:53 -5.00251 111.72728 39927 ft 511 kts 309°
2026-05-04 14:54 -4.95886 111.67088 39928 ft 511 kts 309°
2026-05-04 14:54 -4.91499 111.61420 39931 ft 514 kts 309°
2026-05-04 14:55 -4.87147 111.55798 39930 ft 514 kts 309°
2026-05-04 14:55 -4.82771 111.50147 39928 ft 514 kts 309°
2026-05-04 14:56 -4.78410 111.44516 39930 ft 514 kts 309°
2026-05-04 14:56 -4.74032 111.38864 39929 ft 514 kts 309°
2026-05-04 14:57 -4.69644 111.33201 39930 ft 514 kts 309°
2026-05-04 14:57 -4.65256 111.27539 39928 ft 514 kts 309°
2026-05-04 14:58 -4.60880 111.21893 39926 ft 515 kts 309°
2026-05-04 14:58 -4.56535 111.16254 39922 ft 516 kts 309°
2026-05-04 14:59 -4.52162 111.10573 39922 ft 512 kts 308°
2026-05-04 15:00 -4.45623 111.02085 39924 ft 513 kts 309°
2026-05-04 15:00 -4.41274 110.96445 39928 ft 513 kts 308°
2026-05-04 15:01 -4.34734 110.87962 39924 ft 512 kts 309°
2026-05-04 15:01 -4.30382 110.82321 39924 ft 513 kts 309°
2026-05-04 15:02 -4.26029 110.76678 39924 ft 512 kts 309°
2026-05-04 15:02 -4.21722 110.71096 39925 ft 513 kts 309°
2026-05-04 15:03 -4.17368 110.65455 39924 ft 512 kts 309°
2026-05-04 15:03 -4.13008 110.59806 39925 ft 512 kts 309°
2026-05-04 15:04 -4.08649 110.54161 39924 ft 513 kts 309°
2026-05-04 15:04 -4.04284 110.48508 39925 ft 513 kts 309°
2026-05-04 15:05 -3.99927 110.42870 39925 ft 515 kts 309°
2026-05-04 15:05 -3.95539 110.37197 39924 ft 515 kts 310°
2026-05-04 15:06 -3.90909 110.31780 39924 ft 517 kts 313°
2026-05-04 15:07 -3.83828 110.23645 39924 ft 517 kts 312°
2026-05-04 15:07 -3.79135 110.18185 39922 ft 517 kts 312°
2026-05-04 15:08 -3.74485 110.12766 39927 ft 516 kts 312°
2026-05-04 15:08 -3.69784 110.07289 39924 ft 515 kts 312°
2026-05-04 15:09 -3.65112 110.01848 39926 ft 515 kts 312°
2026-05-04 15:09 -3.60479 109.96454 39924 ft 515 kts 312°
2026-05-04 15:10 -3.53490 109.88318 39925 ft 513 kts 311°
2026-05-04 15:11 -3.46506 109.80189 39926 ft 513 kts 311°
2026-05-04 15:11 -3.41835 109.74753 39924 ft 515 kts 311°
2026-05-04 15:12 -3.37162 109.69316 39922 ft 515 kts 311°
2026-05-04 15:12 -3.32526 109.63923 39922 ft 515 kts 311°
2026-05-04 15:13 -3.27844 109.58478 39925 ft 515 kts 311°
2026-05-04 15:13 -3.23184 109.53058 39924 ft 515 kts 311°
2026-05-04 15:14 -3.18504 109.47617 39921 ft 516 kts 311°
2026-05-04 15:14 -3.13856 109.42213 39922 ft 515 kts 311°
2026-05-04 15:15 -3.09180 109.36778 39926 ft 515 kts 311°
2026-05-04 15:15 -3.04512 109.31353 39924 ft 515 kts 311°
2026-05-04 15:16 -2.97508 109.23214 39925 ft 515 kts 311°
2026-05-04 15:17 -2.90512 109.15087 39925 ft 515 kts 311°
2026-05-04 15:17 -2.83504 109.06968 39931 ft 515 kts 311°
2026-05-04 15:18 -2.78835 109.01571 39928 ft 515 kts 311°
2026-05-04 15:19 -2.71808 108.93444 39929 ft 515 kts 311°
2026-05-04 15:19 -2.64806 108.85347 39928 ft 515 kts 311°
2026-05-04 15:20 -2.60112 108.79920 39927 ft 515 kts 311°
2026-05-04 15:20 -2.55429 108.74507 39928 ft 516 kts 311°
2026-05-04 15:21 -2.50736 108.69082 39927 ft 517 kts 311°
2026-05-04 15:22 -2.43674 108.60903 39928 ft 517 kts 311°
2026-05-04 15:22 -2.36646 108.52748 39927 ft 517 kts 311°
2026-05-04 15:23 -2.31972 108.47328 39927 ft 517 kts 311°
2026-05-04 15:23 -2.27267 108.41873 39927 ft 517 kts 311°
2026-05-04 15:24 -2.17898 108.31010 39928 ft 517 kts 311°
2026-05-04 15:25 -2.13212 108.25578 39926 ft 518 kts 311°
2026-05-04 15:26 -2.06955 108.18327 39923 ft 518 kts 311°
2026-05-04 15:26 -1.99900 108.10147 39928 ft 518 kts 311°
2026-05-04 15:27 -1.92845 108.01964 39927 ft 518 kts 311°
2026-05-04 15:28 -1.85824 107.93823 39927 ft 518 kts 311°
2026-05-04 15:29 -1.78795 107.85673 39927 ft 519 kts 312°
2026-05-04 15:30 -1.62360 107.66622 39930 ft 517 kts 312°
2026-05-04 15:31 -1.55312 107.58454 39927 ft 517 kts 312°
2026-05-04 15:32 -1.43636 107.44924 39930 ft 516 kts 312°
2026-05-04 15:34 -1.31910 107.31451 39926 ft 511 kts 313°
2026-05-04 15:34 -1.24817 107.23486 39928 ft 511 kts 313°
2026-05-04 15:35 -1.17782 107.15556 39927 ft 511 kts 313°
2026-05-04 15:36 -1.10718 107.07591 39925 ft 511 kts 313°
2026-05-04 15:36 -1.06005 107.02276 39924 ft 510 kts 313°
2026-05-04 15:37 -1.01301 106.96973 39930 ft 510 kts 313°
2026-05-04 15:37 -0.96593 106.91665 39930 ft 510 kts 313°
2026-05-04 15:38 -0.91902 106.86377 39930 ft 510 kts 313°
2026-05-04 15:38 -0.87191 106.81067 39930 ft 510 kts 313°
2026-05-04 15:39 -0.82517 106.75798 39930 ft 510 kts 313°
2026-05-04 15:40 -0.75451 106.67833 39928 ft 510 kts 313°
2026-05-04 15:40 -0.70761 106.62548 39930 ft 511 kts 313°
2026-05-04 15:41 -0.66060 106.57249 39936 ft 511 kts 313°
2026-05-04 15:41 -0.61349 106.51938 39933 ft 511 kts 313°
2026-05-04 15:42 -0.56678 106.46618 39930 ft 511 kts 313°
2026-05-04 15:42 -0.52018 106.41282 39930 ft 511 kts 313°
2026-05-04 15:43 -0.47341 106.35936 39932 ft 511 kts 313°
2026-05-04 15:43 -0.42691 106.30625 39933 ft 509 kts 313°
2026-05-04 15:44 -0.38054 106.25329 39931 ft 509 kts 313°
2026-05-04 15:44 -0.33385 106.19997 39928 ft 510 kts 313°
2026-05-04 15:45 -0.28715 106.14664 39930 ft 509 kts 313°
2026-05-04 15:45 -0.24087 106.09378 39930 ft 509 kts 313°
2026-05-04 15:46 -0.19459 106.04094 39925 ft 509 kts 313°
2026-05-04 15:46 -0.14791 105.98763 39925 ft 509 kts 313°
2026-05-04 15:47 -0.10156 105.93470 39928 ft 508 kts 313°
2026-05-04 15:47 -0.05498 105.88150 39928 ft 508 kts 313°
2026-05-04 15:48 -0.00852 105.82844 39926 ft 508 kts 312°
2026-05-04 15:48 0.06147 105.74852 39925 ft 510 kts 313°
2026-05-04 15:49 0.10828 105.69506 39928 ft 510 kts 313°
2026-05-04 15:49 0.15479 105.64195 39931 ft 510 kts 313°
2026-05-04 15:50 0.20173 105.58834 39925 ft 511 kts 312°
2026-05-04 15:50 0.24810 105.53538 39924 ft 511 kts 312°
2026-05-04 15:51 0.29474 105.48212 39927 ft 511 kts 312°
2026-05-04 15:51 0.34157 105.42864 39926 ft 511 kts 312°
2026-05-04 15:52 0.38819 105.37522 39924 ft 511 kts 310°
2026-05-04 15:52 0.42905 105.31704 39926 ft 513 kts 301°
2026-05-04 15:53 0.46515 105.25566 39923 ft 517 kts 301°
2026-05-04 15:53 0.50179 105.19387 39925 ft 517 kts 301°
2026-05-04 15:54 0.53802 105.13266 39924 ft 517 kts 301°
2026-05-04 15:54 0.57455 105.07090 39918 ft 517 kts 301°
2026-05-04 15:55 0.61106 105.00918 39920 ft 517 kts 301°
2026-05-04 15:55 0.64755 104.94749 39921 ft 517 kts 301°
2026-05-04 15:56 0.68436 104.88527 39907 ft 522 kts 301°
2026-05-04 15:56 0.72101 104.82329 39909 ft 521 kts 301°
2026-05-04 15:57 0.75763 104.76137 39918 ft 518 kts 301°
2026-05-04 15:57 0.79426 104.69943 39925 ft 517 kts 301°
2026-05-04 15:58 0.83078 104.63770 39931 ft 517 kts 301°
2026-05-04 15:58 0.86738 104.57581 39938 ft 517 kts 301°
2026-05-04 15:59 0.90535 104.51496 39938 ft 517 kts 307°
2026-05-04 15:59 0.95079 104.46022 39938 ft 516 kts 312°
2026-05-04 16:00 0.99743 104.40653 39932 ft 516 kts 312°
2026-05-04 16:00 1.04445 104.35226 39922 ft 516 kts 312°
2026-05-04 16:01 1.09122 104.29832 39924 ft 516 kts 312°
2026-05-04 16:01 1.13820 104.24417 39934 ft 514 kts 312°
2026-05-04 16:02 1.18500 104.19024 39937 ft 516 kts 311°
2026-05-04 16:03 1.25560 104.10886 39932 ft 516 kts 311°
2026-05-04 16:03 1.30218 104.05516 39911 ft 516 kts 311°
2026-05-04 16:04 1.34869 104.00085 39911 ft 517 kts 309°
2026-05-04 16:04 1.40697 103.91013 39910 ft 518 kts 302°
2026-05-04 16:05 1.44405 103.84874 39643 ft 518 kts 302°
2026-05-04 16:05 1.48120 103.78728 38936 ft 516 kts 302°
2026-05-04 16:06 1.49981 103.75643 37995 ft 520 kts 302°
2026-05-04 16:06 1.55002 103.67323 35266 ft 531 kts 302°
2026-05-04 16:07 1.57651 103.63202 33937 ft 535 kts 305°
2026-05-04 16:07 1.63999 103.53925 30544 ft 542 kts 305°
2026-05-04 16:08 1.66121 103.50813 29333 ft 544 kts 305°
2026-05-04 16:08 1.72153 103.41471 26727 ft 525 kts 301°
2026-05-04 16:09 1.75809 103.35349 25134 ft 515 kts 302°
2026-05-04 16:09 1.79480 103.29298 23634 ft 505 kts 302°
2026-05-04 16:10 1.83104 103.23366 23099 ft 502 kts 302°
2026-05-04 16:11 1.88555 103.14449 23121 ft 496 kts 302°
2026-05-04 16:11 1.89735 103.12518 22969 ft 492 kts 302°
2026-05-04 16:12 1.95078 103.03776 22918 ft 494 kts 302°
2026-05-04 16:12 2.00421 102.95030 22924 ft 494 kts 302°
2026-05-04 16:13 2.04003 102.89166 22917 ft 496 kts 302°
2026-05-04 16:13 2.07124 102.83050 22921 ft 499 kts 296°
2026-05-04 16:14 2.10145 102.76849 22928 ft 498 kts 296°
2026-05-04 16:14 2.13163 102.70670 22924 ft 497 kts 296°
2026-05-04 16:15 2.18558 102.61977 22651 ft 487 kts 312°
2026-05-04 16:16 2.23290 102.57265 21261 ft 477 kts 317°
2026-05-04 16:16 2.29115 102.49482 19172 ft 464 kts 295°
2026-05-04 16:17 2.31704 102.43636 17782 ft 458 kts 295°
2026-05-04 16:18 2.33498 102.34632 15542 ft 443 kts 262°
2026-05-04 16:18 2.32780 102.31674 14796 ft 437 kts 249°
2026-05-04 16:19 2.27117 102.25085 12542 ft 417 kts 207°
2026-05-04 16:19 2.21900 102.22844 11184 ft 403 kts 211°
2026-05-04 16:20 2.17592 102.16369 10723 ft 360 kts 265°
2026-05-04 16:20 2.18825 102.11867 10461 ft 329 kts 308°
2026-05-04 16:21 2.23972 102.08396 9974 ft 275 kts 327°
2026-05-04 16:22 2.26928 102.06217 9253 ft 259 kts 321°
2026-05-04 16:22 2.30806 102.03080 8338 ft 225 kts 321°
2026-05-04 16:23 2.34370 102.00208 7277 ft 211 kts 321°
2026-05-04 16:24 2.39017 101.96470 6657 ft 214 kts 321°
2026-05-04 16:25 2.41166 101.94761 6248 ft 185 kts 325°
2026-05-04 16:26 2.45201 101.92077 4396 ft 176 kts 325°
2026-05-04 16:26 2.48150 101.90095 3990 ft 175 kts 325°
2026-05-04 16:27 2.50175 101.88738 3808 ft 173 kts 325°
2026-05-04 16:28 2.53099 101.86769 2991 ft 170 kts 325°
2026-05-04 16:28 2.56043 101.84786 2989 ft 166 kts 325°
2026-05-04 16:29 2.59831 101.82253 2494 ft 165 kts 326°
2026-05-04 16:30 2.62593 101.80405 1999 ft 159 kts 326°
2026-05-04 16:31 2.64419 101.79184 1727 ft 156 kts 327°
2026-05-04 16:31 2.67141 101.77363 1205 ft 159 kts 327°
2026-05-04 16:32 2.69865 101.75542 905 ft 158 kts 327°
2026-05-04 16:33 2.71688 101.74322 719 ft 156 kts 327°
2026-05-04 16:33 2.73492 101.73113 393 ft 159 kts 326°
2026-05-04 16:34 2.75295 101.71886 67 ft 147 kts 326°
2026-05-04 16:34 2.75993 101.71431 74 ft 83 kts 326°
2026-05-04 16:35 2.76575 101.70921 62 ft 0 kts 283°
2026-05-04 16:36 2.76576 101.70919 63 ft 3 kts 283°
2026-05-04 16:36 2.76516 101.70852 61 ft 10 kts 152°
2026-05-04 16:37 2.76361 101.70953 64 ft 17 kts 146°
2026-05-04 16:37 2.76256 101.71018 63 ft 18 kts 162°
2026-05-04 16:37 2.76036 101.71065 65 ft 15 kts 159°
2026-05-04 16:38 2.75837 101.71193 62 ft 20 kts 146°
2026-05-04 16:39 2.75542 101.71393 67 ft 13 kts 146°
2026-05-04 16:39 2.75374 101.71506 83 ft 16 kts 146°
2026-05-04 16:40 2.75221 101.71608 84 ft 0 kts 146°
2026-05-04 16:42 2.75161 101.71616 85 ft 8 kts 213°
2026-05-04 16:43 2.75070 101.71497 85 ft 9 kts 221°
2026-05-04 16:43 2.75017 101.71555 87 ft 9 kts 43°
2026-05-04 16:43 2.75072 101.71559 86 ft 4 kts 330°
2026-05-04 16:44 2.75073 101.71558 81 ft 0 kts 330°
2026-05-04 16:46 2.75076 101.71557 81 ft 1 kts 330°
2026-05-04 16:46 2.75109 101.71554 83 ft 2 kts 28°
2026-05-04 16:47 2.75121 101.71564 85 ft 0 kts 54°
2026-05-04 16:47 2.75152 101.71635 81 ft 10 kts 114°
2026-05-04 16:48 2.75103 101.71684 85 ft 0 kts 148°
2026-05-04 16:51 2.75065 101.71694 85 ft 11 kts 202°
2026-05-04 16:51 2.75013 101.71627 85 ft 1 kts 236°
2026-05-04 17:00 2.72344 101.73883 540 ft 157 kts 327°